Date String (YYYY-MM-DD hh:mm:ss) UTC,Instrument flags,absolute air pressure of the measurement (hPa),sample flow rate (lpm),inlet stack bypass flow (lpm),air temperature of the measurement (°C),ambient temperature measured by the external sensor (°C),aerosol sample conditioner tube jacket temperature (°C),OPC LED temperature (°C),internal box temperature (°C),relative humidity of the measurement (%),span deviation,mass concentration of particles derived from Lorenz-Mie calculation of OPC scattering (μg/m³),mass concentration of particles derived from Lorenz-Mie calculation of OPC scattering (μg/m³),mass concentration of particles derived from Lorenz-Mie calculation of OPC scattering (μg/m³)
DateTimeUTC,F1_M11,P_M11,Q1_M11,Q2_M11,T1_M11,T2_M11,T3_M11,T4_M11,T5_M11,U1_M11,ZSPAN_M11,X2_M11,X0_M11,X1_M11
2024-01-07 12:00:00,SystemResetWarning,0816.3,4.99,000.00,018.7,017.6,000.0,027.2,020.0,7.5,0000.0,0001.07,0001.79,0000.77
2024-01-07 12:01:00,SystemResetWarning,0816.3,5.00,000.00,018.7,017.6,000.0,027.2,020.0,7.3,0000.0,0001.07,0001.77,0000.77
2024-01-07 12:02:00,SystemResetWarning,0816.3,5.00,000.00,018.7,017.7,000.0,027.2,020.0,7.2,0000.0,0001.09,0001.83,0000.77
2024-01-07 12:03:00,SystemResetWarning,0816.2,4.99,000.00,018.7,017.7,000.0,027.2,020.0,7.1,0000.0,0001.12,0001.99,0000.77
2024-01-07 12:04:00,SystemResetWarning,0816.2,5.00,000.00,018.7,017.7,000.0,027.2,020.0,7.1,0000.0,0001.14,0002.08,0000.79
2024-01-07 12:05:00,SystemResetWarning,0816.2,5.00,000.00,018.7,017.7,000.0,027.2,020.0,7.1,0000.0,0001.12,0002.04,0000.78
2024-01-07 12:06:00,SystemResetWarning,0816.1,5.00,000.00,018.7,017.7,000.0,027.2,020.0,7.2,0000.0,0001.10,0002.92,0000.77
2024-01-07 12:07:00,SystemResetWarning,0816.1,5.00,000.00,018.7,017.6,000.0,027.2,020.0,7.3,0000.0,0001.08,0003.14,0000.76
2024-01-07 12:08:00,SystemResetWarning,0816.1,5.00,000.00,018.7,017.6,000.0,027.2,020.0,7.4,0000.0,0001.09,0003.15,0000.77
2024-01-07 12:09:00,SystemResetWarning,0816.1,5.00,000.00,018.7,017.6,000.0,027.2,020.0,7.5,0000.0,0001.08,0003.08,0000.78
2024-01-07 12:10:00,SystemResetWarning,0816.1,5.00,000.00,018.7,017.5,000.0,027.2,020.0,7.6,0000.0,0001.04,0002.95,0000.78
2024-01-07 12:11:00,SystemResetWarning,0816.1,5.00,000.00,018.7,017.5,000.0,027.2,020.0,7.6,0000.0,0001.03,0002.93,0000.78
2024-01-07 12:12:00,SystemResetWarning,0816.1,5.00,000.00,018.7,017.5,000.0,027.2,020.0,7.7,0000.0,0001.02,0002.91,0000.78
2024-01-07 12:13:00,SystemResetWarning,0816.1,4.99,000.00,018.6,017.4,000.0,027.2,020.0,7.8,0000.0,0001.04,0003.00,0000.78
2024-01-07 12:14:00,SystemResetWarning,0816.1,5.00,000.00,018.7,017.4,000.0,027.2,020.0,7.9,0000.0,0001.04,0002.98,0000.79
2024-01-07 12:15:00,SystemResetWarning,0816.1,5.00,000.00,018.7,017.4,000.0,027.2,020.0,7.9,0000.0,0001.09,0003.05,0000.79
2024-01-07 12:16:00,SystemResetWarning,0816.1,5.01,000.00,018.7,017.6,000.0,027.2,020.3,7.9,0000.0,0001.14,0003.19,0000.80
2024-01-07 12:17:00,SystemResetWarning,0816.1,5.01,000.00,018.8,018.4,000.0,027.1,020.7,7.9,0000.0,0001.18,0002.83,0000.81
2024-01-07 12:18:00,SystemResetWarning,0816.1,4.99,000.00,018.9,018.9,000.0,027.2,020.7,7.9,0000.0,0001.20,0002.21,0000.82
2024-01-07 12:19:00,SystemResetWarning,0816.1,4.99,000.00,019.0,018.8,000.0,027.2,020.4,7.8,0000.0,0001.17,0002.14,0000.82
2024-01-07 12:20:00,SystemResetWarning,0816.1,5.00,000.00,019.0,018.7,000.0,027.2,020.3,7.8,0000.0,0001.15,0003.06,0000.82
2024-01-07 12:21:00,SystemResetWarning,0816.1,5.00,000.00,018.9,018.6,000.0,027.2,020.2,7.8,0000.0,0001.15,0003.08,0000.81
2024-01-07 12:22:00,SystemResetWarning,0816.1,5.01,000.00,018.9,018.4,000.0,027.2,020.1,7.9,0000.0,0001.15,0003.07,0000.82
2024-01-07 12:23:00,SystemResetWarning,0816.1,5.00,000.00,018.9,018.3,000.0,027.2,020.0,7.9,0000.0,0001.16,0003.08,0000.82
2024-01-07 12:24:00,SystemResetWarning,0816.1,5.00,000.00,018.8,018.2,000.0,027.1,020.0,7.8,0000.0,0001.16,0003.04,0000.83
2024-01-07 12:25:00,SystemResetWarning,0816.2,5.00,000.00,018.8,018.1,000.0,027.1,020.0,7.8,0000.0,0001.15,0002.96,0000.83
2024-01-07 12:26:00,SystemResetWarning,0816.1,5.00,000.00,018.8,018.0,000.0,027.2,020.0,7.7,0000.0,0001.10,0002.82,0000.83
2024-01-07 12:27:00,SystemResetWarning,0816.1,5.00,000.00,018.8,017.9,000.0,027.1,020.0,7.7,0000.0,0001.03,0002.64,0000.81
2024-01-07 12:28:00,SystemResetWarning,0816.1,4.99,000.00,018.8,017.8,000.0,027.2,020.0,7.8,0000.0,0001.01,0002.55,0000.80
2024-01-07 12:29:00,SystemResetWarning,0816.1,5.00,000.00,018.7,017.8,000.0,027.2,020.0,7.8,0000.0,0000.98,0002.42,0000.80
2024-01-07 12:30:00,SystemResetWarning,0816.1,5.01,000.00,018.7,017.7,000.0,027.2,020.0,7.8,0000.0,0001.00,0002.48,0000.79
2024-01-07 12:31:00,SystemResetWarning,0816.1,5.01,000.00,018.7,017.7,000.0,027.2,020.0,7.9,0000.0,0001.04,0001.62,0000.78
2024-01-07 12:32:00,SystemResetWarning,0816.1,5.01,000.00,018.7,017.6,000.0,027.2,020.0,7.9,0000.0,0001.06,0001.58,0000.78
2024-01-07 12:33:00,SystemResetWarning,0816.1,4.99,000.00,018.7,017.6,000.0,027.2,020.0,7.9,0000.0,0001.07,0001.71,0000.78
2024-01-07 12:34:00,SystemResetWarning,0816.1,4.99,000.00,018.7,017.6,000.0,027.2,020.0,7.8,0000.0,0001.07,0001.72,0000.77
2024-01-07 12:35:00,SystemResetWarning,0816.1,4.99,000.00,018.7,017.6,000.0,027.2,020.0,7.8,0000.0,0001.05,0001.68,0000.76
2024-01-07 12:36:00,SystemResetWarning,0816.2,5.01,000.00,018.7,017.5,000.0,027.2,020.0,7.7,0000.0,0001.05,0001.68,0000.76
2024-01-07 12:37:00,SystemResetWarning,0816.1,5.01,000.00,018.7,017.5,000.0,027.2,020.0,7.7,0000.0,0001.04,0001.98,0000.74
2024-01-07 12:38:00,SystemResetWarning,0816.2,5.01,000.00,018.7,017.5,000.0,027.2,020.0,7.7,0000.0,0001.05,0002.13,0000.74
2024-01-07 12:39:00,SystemResetWarning,0816.1,4.98,000.00,018.7,017.6,000.0,027.2,020.0,7.6,0000.0,0001.06,0002.14,0000.75
2024-01-07 12:40:00,SystemResetWarning,0816.1,5.01,000.00,018.7,017.6,000.0,027.2,020.0,7.5,0000.0,0001.07,0002.17,0000.75
2024-01-07 12:41:00,SystemResetWarning,0816.2,5.01,000.00,018.7,017.6,000.0,027.2,020.0,7.5,0000.0,0001.04,0002.11,0000.75
2024-01-07 12:42:00,SystemResetWarning,0816.1,5.01,000.00,018.7,017.6,000.0,027.2,020.0,7.5,0000.0,0001.02,0002.07,0000.75
2024-01-07 12:43:00,SystemResetWarning,0816.1,5.00,000.00,018.7,017.6,000.0,027.2,020.0,7.5,0000.0,0001.03,0002.10,0000.76
2024-01-07 12:44:00,SystemResetWarning,0816.1,5.00,000.00,018.7,017.7,000.0,027.2,020.0,7.6,0000.0,0001.01,0001.97,0000.75
2024-01-07 12:45:00,SystemResetWarning,0816.1,5.00,000.00,018.7,017.6,000.0,027.2,020.0,7.6,0000.0,0001.02,0001.98,0000.75
2024-01-07 12:46:00,SystemResetWarning,0816.1,4.99,000.00,018.7,017.6,000.0,027.2,020.0,7.7,0000.0,0001.04,0002.03,0000.76
2024-01-07 12:47:00,SystemResetWarning,0816.1,5.00,000.00,018.7,017.6,000.0,027.2,020.0,7.7,0000.0,0001.06,0002.09,0000.76
2024-01-07 12:48:00,SystemResetWarning,0816.1,5.00,000.00,018.7,017.6,000.0,027.2,020.0,7.6,0000.0,0001.07,0001.83,0000.77
2024-01-07 12:49:00,SystemResetWarning,0816.1,5.00,000.00,018.7,017.6,000.0,027.2,020.0,7.7,0000.0,0001.06,0001.68,0000.77
2024-01-07 12:50:00,SystemResetWarning,0816.1,5.00,000.00,018.7,017.6,000.0,027.1,020.1,7.7,0000.0,0001.05,0001.69,0000.76
2024-01-07 12:51:00,SystemResetWarning,0816.1,5.01,000.00,018.7,018.0,000.0,027.1,020.4,7.6,0000.0,0001.07,0001.76,0000.76
2024-01-07 12:52:00,SystemResetWarning,0816.1,5.01,000.00,018.9,018.8,000.0,027.1,020.8,7.5,0000.0,0001.09,0001.87,0000.75
2024-01-07 12:53:00,SystemResetWarning,0816.1,4.99,000.00,019.0,019.0,000.0,027.2,020.7,7.4,0000.0,0001.08,0001.88,0000.76
2024-01-07 12:54:00,SystemResetWarning,0816.1,4.99,000.00,019.0,018.9,000.0,027.2,020.4,7.4,0000.0,0001.07,0001.89,0000.75
2024-01-07 12:55:00,SystemResetWarning,0816.1,4.99,000.00,019.0,018.8,000.0,027.2,020.3,7.3,0000.0,0001.08,0001.89,0000.76
2024-01-07 12:56:00,SystemResetWarning,0816.1,5.01,000.00,019.0,018.6,000.0,027.2,020.2,7.3,0000.0,0001.07,0001.87,0000.76
2024-01-07 12:57:00,SystemResetWarning,0816.1,5.01,000.00,018.9,018.5,000.0,027.2,020.1,7.2,0000.0,0001.06,0001.83,0000.76
2024-01-07 12:58:00,SystemResetWarning,0816.0,5.01,000.00,018.9,018.4,000.0,027.2,020.1,7.2,0000.0,0001.02,0001.73,0000.74
2024-01-07 12:59:00,SystemResetWarning,0816.0,4.99,000.00,018.9,018.2,000.0,027.2,020.0,7.2,0000.0,0001.01,0001.68,0000.75
